{"data":{"norad_id":58164,"epoch":"2026-05-24T22:08:52.961280Z","epoch_age_seconds":92395,"freshness":"FRESH","line1":"1 58164U 23166Q   26144.92283520  .00000998  00000+0  43879-4 0  9990","line2":"2 58164  53.1600 225.3305 0000453 187.3888 172.7107 15.31713907144850","mean_motion":15.31713907,"eccentricity":4.53e-5,"inclination_deg":53.16,"raan_deg":225.3305,"arg_perigee_deg":187.3888,"mean_anomaly_deg":172.7107,"bstar":4.3879e-5,"rev_number":14485,"period_min":94.012334380405,"perigee_km":470.38828724603,"apogee_km":471.00879174591,"semimajor_km":6848.835539496,"source":"CELESTRAK","updated_at":"2026-05-25T13:38:18.539542Z"}}